GSAT-30

Last updated on Sun Apr 12 2026 00:02:55 GMT+0000 (Coordinated Universal Time)

1 45026U 20005A 26101.47406078 -.00000164 00000+0 00000+0 0 9990 2 45026 0.0114 230.2970 0002376 190.5608 32.5002 1.00273581 22839
UTC large
Height (km)
Speed (km/s)
/
Latitude / Longitude
Inclination (degrees)
Orbital Period (minutes)
Azimuth
Elevation
Range (km)
Doppler Factor

Next 0 passes for location: London (51.5072 / 0.1276)

Sorry there are no passes over London.
GSAT-30